Flag for Germany Weather past 2 weeks in Moers, North Rhine-Westphalia, Germany

Now
57 °F

Clear.


Feels Like: 57 °F
Forecast: 53 / 75 °F
Wind: 5 mph from Northeast

Location: Duesseldorf

Current Time: Jul 31, 2015 at 11:32:43 PM

Latest Report: Jul 31, 2015 at 11:20 PM


Visibility: 10 mi

Pressure: 30.04 "Hg

Humidity: 59%

Dew point: 43 °F

Location of MoersLocation

Historic Weather in Moers — Graph

°F

Moers temperature yesterday

Maximum temperature yesterday: 66 °F (at 1:20 PM)
Minimum temperature yesterday: 50 °F (at 2:20 AM)
Average temperature yesterday: 57 °F

Past Weeks' High & Low Weather Summary

 TemperatureHumidityPressure
High91 °F (Jul 17, 4:50 PM)100% (Jul 20, 6:20 AM)30.15 "Hg (Jul 20, 6:20 AM)
Low45 °F (Jul 31, 4:50 AM)26% (Jul 17, 4:50 PM)29.50 "Hg (Jul 25, 6:50 AM)
Average66 °F70%29.88 "Hg
* Reported Jul 16 10:20 PM — Jul 31 10:20 PM, Moers, Weather by CustomWeather, © 2015

Note: Actual official high and low records may vary slightly from our data, if they occured in-between our weather recording intervals... More about our weather records

Advertising

Moers weather history for previous 24 hours

 ConditionsComfort  
Time TempWeatherWind HumidityBarometerVisibility
10:20 PM
Fri, Jul 31
59 °FSunny.7 mph55%30.04 "Hg10 mi
9:50 PM61 °FSunny.8 mph52%30.04 "Hg10 mi
9:20 PM63 °FSunny.8 mph49%30.04 "Hg10 mi
8:50 PM64 °FSunny.7 mph43%30.04 "Hg10 mi
8:20 PM64 °FSunny.8 mph43%30.04 "Hg10 mi
7:50 PM66 °FSunny.9 mph40%30.04 "Hg10 mi
7:20 PM66 °FSunny.8 mph37%30.04 "Hg10 mi
6:50 PM68 °FSunny.6 mph35%30.04 "Hg10 mi
6:20 PM68 °FPassing clouds.6 mph35%30.07 "HgN/A
5:50 PM68 °FSunny.6 mph35%30.07 "Hg10 mi
5:20 PM68 °FPassing clouds.5 mph35%30.07 "HgN/A
4:50 PM68 °FPassing clouds.5 mph38%30.07 "HgN/A
4:20 PM68 °FPassing clouds.6 mph38%30.07 "HgN/A
3:50 PM68 °FSunny.6 mph38%30.07 "Hg10 mi
3:20 PM68 °FSunny.6 mph38%30.09 "Hg10 mi
2:50 PM66 °FSunny.2 mph40%30.09 "Hg10 mi
2:20 PM64 °FSunny.5 mph43%30.09 "Hg10 mi
1:50 PM64 °FPartly sunny.1 mph43%30.12 "HgN/A
1:20 PM64 °FScattered clouds.3 mph43%30.12 "HgN/A
12:50 PM63 °FScattered clouds.2 mph52%30.12 "HgN/A
12:20 PM63 °FPassing clouds.3 mph49%30.12 "HgN/A
11:50 AM63 °FPassing clouds.2 mph52%30.15 "HgN/A
11:20 AM61 °FPassing clouds.2 mph59%30.15 "HgN/A
10:50 AM59 °FPassing clouds.3 mph63%30.15 "HgN/A
10:20 AM59 °FPassing clouds.2 mph63%30.15 "HgN/A
9:20 AM57 °FPassing clouds.3 mph72%30.15 "HgN/A
8:50 AM55 °FPassing clouds.2 mph77%30.15 "HgN/A
8:20 AM54 °FSunny.3 mph88%30.15 "Hg10 mi
7:50 AM52 °FSunny.2 mph94%30.15 "Hg10 mi
7:20 AM48 °FSunny.2 mph100%30.12 "Hg10 mi
6:50 AM46 °FFog.1 mph93%30.12 "HgN/A
6:20 AM45 °FFog.1 mph100%30.12 "HgN/A
5:50 AM45 °FFog.No wind93%30.12 "HgN/A
5:20 AM45 °FFog.1 mph93%30.12 "HgN/A
4:50 AM45 °FFog.1 mph93%30.12 "HgN/A
4:20 AM46 °FFog.1 mph93%30.12 "HgN/A
3:50 AM46 °FFog.1 mph93%30.12 "HgN/A
3:20 AM46 °FFog.1 mph93%30.12 "HgN/A
2:50 AM48 °FFog.1 mph87%30.12 "HgN/A
2:20 AM48 °FFog.1 mph87%30.12 "HgN/A
1:50 AM50 °FPassing clouds.1 mph88%30.12 "HgN/A
1:20 AM52 °FPassing clouds.1 mph82%30.12 "HgN/A
12:50 AM54 °FPassing clouds.3 mph77%30.09 "HgN/A
12:20 AM55 °FClear.5 mph82%30.09 "Hg10 mi
11:20 PM
Thu, Jul 30
57 °FClear.6 mph82%30.09 "Hg10 mi
Weather by CustomWeather, © 2015

See weather overviewHow to use our weather pages